Weather Roundup
Issued by NWS Chicago, IL

Home | Current Version | Previous Version | Graphics & Text | Print | Product List | Glossary On
Versions: 1 2 3 4 5 6 7 8 9 10 11 12 13 14 15 16 17 18 19 20 21 22 23 24 25 26 27 28 29 30 31 32 33 34 35 36 37 38 39 40 41 42 43 44 45 46 47 48 49 50
000
NZUS59 KLOT 310210
HRRLOT

CHICAGO AREA WEATHER ROUNDUP
NATIONAL WEATHER SERVICE CHICAGO/ROMEOVILLE IL
900 PM CDT SAT AUG 30 2014

NOTE: "FAIR" INDICATES FEW OR NO CLOUDS BELOW 12,000 FEET WITH NO
SIGNIFICANT WEATHER AND/OR OBSTRUCTIONS TO VISIBILITY.

* THESE STATIONS ARE NOT UNDER NWS QUALITY CONTROL. THEY ALSO MAY NOT
  REPORT WEATHER SUCH AS PRECIPITATION OR FOG.

ILZ005-006-012>014-019>023-310300-
NORTHEAST ILLINOIS

CITY           SKY/WX    TMP DP  RH WIND       PRES   REMARKS
OHARE          PTCLDY    76  63  64 SW5       29.89R
MIDWAY         PTCLDY    78  68  71 W5        29.89R HX  80
AURORA         CLEAR     71  66  84 W5        29.91R
LANSING*         N/A    N/A N/A N/A MISG        N/A
JOLIET*        PTCLDY    73  66  80 CALM      29.91R
WAUKEGAN       CLEAR     73  65  75 SW3       29.88R
DUPAGE AIRPORT CLEAR     73  66  78 SW5       29.90R
WHEELING       CLEAR     77  65  66 CALM      29.91R
KANKAKEE*      MOCLDY    72  66  82 S10G16    29.93R THUNDER
MORRIS*        CLEAR     74  71  89 CALM      29.91R
LEWIS AIRPORT* CLEAR     72  67  85 W5        29.90S
NORTHERLY IS     N/A     79  64  60 W7          N/A  HX  81
$$

WIZ051-052-058>065-066-070>072-310300-
SOUTHEAST WISCONSIN

CITY           SKY/WX    TMP DP  RH WIND       PRES   REMARKS
MILWAUKEE      PTCLDY    74  68  81 W5        29.87R
KENOSHA*       CLEAR     70  67  90 SW6       29.89R
RACINE*        CLEAR     71  66  84 SW3       29.89R
BURLINGTON     CLEAR     65  63  96 S3        29.89R
WAUKESHA       MOCLDY    68  66  94 CALM      29.89
WEST BEND      CLEAR     68  63  83 SW3       29.88R
$$

INZ001>003-010>013-019-020-310300-
NORTHWEST INDIANA

CITY           SKY/WX    TMP DP  RH WIND       PRES   REMARKS
GARY*          PTCLDY    73  70  88 S6        29.91R
MICHIGAN CITY* NOT AVBL
RENSSELAER*    NOT AVBL
VALPARAISO     CLOUDY    71  68  90 S6        29.93R
$$

LMZ740>746-310300-
SOUTHERN LAKE MICHIGAN

STATION/POSITION TIME  SKY/WX   TEMP WIND        PRES    VSBY
                                AIR  DIR/SP/G
                 (UTC)          (F)  (DEG/KT/KT) (MB)    (MI)
HARRISON CRIB    0200            78  250/ 10/ 13   N/A
BURNHAM HARBOR   0200            79  240/  7/ 10   N/A
CALUMET HARBOR   0200            78  210/  4/  6 1011.3R
BURNS HARBOR     NOT AVBL
MICHIGAN CITY    0200            72  170/ 15/ 19   N/A
$$

ABBREVIATIONS USED IN REMARKS
   TC - TEMPERATURE IN CELSIUS
  WCI - WIND CHILL INDEX
   HX - HEAT INDEX
  VSB - VISIBILITY
$$


USA.gov is the U.S. government's official web portal to all federal, state and local government web resources and services.